Hourly Weather Astana (Nur-Sultan)

Today, 17 April, Saturday

Time Temperature Precipitation Wind Pressure Humidity
00:00 +8°C° 0 mm 6 mps 732 mmHg 77%
01:00 +6°C° 0 mm 7 mps 732 mmHg 83%
02:00 +6°C° 0 mm 7 mps 732 mmHg 88%
03:00 +5°C° 0 mm 7 mps 733 mmHg 88%
04:00 +5°C° 0 mm 6 mps 733 mmHg 87%
05:00 +6°C° 0 mm 5 mps 734 mmHg 88%
06:00 +5°C° 0 mm 5 mps 734 mmHg 85%
07:00 +4°C° 0 mm 6 mps 735 mmHg 82%
08:00 +4°C° 0 mm 6 mps 735 mmHg 80%
09:00 +6°C° 0 mm 5 mps 735 mmHg 74%
10:00 +7°C° 0 mm 4 mps 735 mmHg 68%
11:00 +9°C° 0 mm 3 mps 735 mmHg 62%
12:00 +10°C° 0 mm 3 mps 735 mmHg 59%
13:00 +11°C° 0 mm 3 mps 735 mmHg 56%
14:00 +12°C° 0 mm 3 mps 735 mmHg 53%
15:00 +13°C° 0 mm 2 mps 735 mmHg 52%
16:00 +13°C° 0 mm 2 mps 735 mmHg 51%
17:00 +13°C° 0 mm 2 mps 734 mmHg 51%
18:00 +12°C° 0 mm 2 mps 734 mmHg 55%
19:00 +10°C° 0 mm 2 mps 734 mmHg 60%
20:00 +9°C° 0 mm 2 mps 734 mmHg 64%
21:00 +10°C° 0 mm 1 mps 734 mmHg 67%
22:00 +9°C° 0 mm 1 mps 733 mmHg 69%
23:00 +8°C° 0 mm 1 mps 733 mmHg 72%

Tomorrow, 18 April, Sunday

Time Temperature Precipitation Wind Pressure Humidity
00:00 +8°C° 0 mm 1 mps 733 mmHg 73%
01:00 +7°C° 0 mm 0 mps 733 mmHg 75%
02:00 +6°C° 0 mm 0 mps 732 mmHg 76%
03:00 +6°C° 0 mm 0 mps 732 mmHg 77%
04:00 +7°C° 0 mm 1 mps 732 mmHg 79%
05:00 +7°C° 0 mm 1 mps 732 mmHg 80%
06:00 +7°C° 0 mm 2 mps 732 mmHg 76%
07:00 +8°C° 0 mm 2 mps 731 mmHg 71%
08:00 +9°C° 0 mm 3 mps 731 mmHg 67%
09:00 +11°C° 0 mm 3 mps 731 mmHg 61%
10:00 +13°C° 0 mm 4 mps 731 mmHg 55%
11:00 +14°C° 0 mm 4 mps 730 mmHg 48%
12:00 +15°C° 0 mm 4 mps 730 mmHg 45%
13:00 +16°C° 0 mm 5 mps 729 mmHg 42%
14:00 +17°C° 0 mm 5 mps 729 mmHg 38%
15:00 +17°C° 0 mm 5 mps 728 mmHg 39%
16:00 +17°C° 0 mm 6 mps 728 mmHg 39%
17:00 +17°C° 0 mm 6 mps 727 mmHg 40%
18:00 +15°C° 0 mm 6 mps 728 mmHg 47%
19:00 +13°C° 0 mm 5 mps 728 mmHg 54%
20:00 +12°C° 0 mm 5 mps 728 mmHg 61%
21:00 +8°C° 0.2 mm 6 mps 729 mmHg 67%
22:00 +4°C° 0.2 mm 8 mps 730 mmHg 73%
23:00 +1°C° 0.2 mm 9 mps 730 mmHg 79%

Day after tomorrow, 19 April, Monday

Time Temperature Precipitation Wind Pressure Humidity
00:00 -1°C° 0.7 mm 8 mps 731 mmHg 77%
01:00 -4°C° 0.7 mm 8 mps 732 mmHg 76%
02:00 -6°C° 0.7 mm 7 mps 733 mmHg 74%
03:00 -6°C° 0.2 mm 7 mps 733 mmHg 72%
04:00 -7°C° 0.2 mm 7 mps 734 mmHg 70%
05:00 -8°C° 0.2 mm 7 mps 734 mmHg 68%
06:00 -8°C° 0 mm 7 mps 734 mmHg 65%
07:00 -7°C° 0 mm 7 mps 735 mmHg 62%
08:00 -7°C° 0 mm 8 mps 735 mmHg 59%
09:00 -7°C° 0 mm 8 mps 735 mmHg 55%
10:00 -6°C° 0 mm 7 mps 735 mmHg 51%
11:00 -4°C° 0 mm 7 mps 736 mmHg 46%
12:00 -3°C° 0 mm 7 mps 736 mmHg 43%
13:00 -3°C° 0 mm 7 mps 736 mmHg 39%
14:00 -2°C° 0 mm 7 mps 736 mmHg 35%
15:00 -2°C° 0 mm 7 mps 736 mmHg 35%
16:00 -3°C° 0 mm 7 mps 736 mmHg 34%
17:00 -3°C° 0 mm 7 mps 736 mmHg 34%
18:00 -4°C° 0 mm 7 mps 737 mmHg 37%
19:00 -6°C° 0 mm 7 mps 737 mmHg 41%
20:00 -6°C° 0 mm 6 mps 737 mmHg 44%
21:00 -6°C° 0 mm 6 mps 738 mmHg 45%
22:00 -6°C° 0 mm 6 mps 738 mmHg 45%
23:00 -8°C° 0 mm 6 mps 738 mmHg 46%

20 April, Tuesday

Time Temperature Precipitation Wind Pressure Humidity
00:00 -8°C° 0 mm 6 mps 738 mmHg 46%
01:00 -8°C° 0 mm 6 mps 738 mmHg 46%
02:00 -8°C° 0 mm 6 mps 738 mmHg 46%
03:00 -9°C° 0 mm 6 mps 738 mmHg 47%
04:00 -9°C° 0 mm 6 mps 739 mmHg 47%
05:00 -9°C° 0 mm 6 mps 739 mmHg 47%
06:00 -9°C° 0 mm 6 mps 739 mmHg 44%
07:00 -8°C° 0 mm 6 mps 739 mmHg 41%
08:00 -8°C° 0 mm 7 mps 740 mmHg 38%
09:00 -6°C° 0 mm 6 mps 740 mmHg 36%
10:00 -5°C° 0 mm 6 mps 740 mmHg 34%
11:00 -5°C° 0 mm 6 mps 740 mmHg 32%
12:00 -4°C° 0 mm 6 mps 740 mmHg 31%
13:00 -3°C° 0 mm 6 mps 739 mmHg 31%
14:00 -2°C° 0 mm 5 mps 739 mmHg 30%
15:00 -1°C° 0 mm 5 mps 739 mmHg 31%
16:00 -1°C° 0 mm 5 mps 739 mmHg 31%
17:00 -1°C° 0 mm 5 mps 739 mmHg 31%
18:00 -2°C° 0 mm 4 mps 739 mmHg 36%
19:00 -2°C° 0 mm 3 mps 739 mmHg 41%
20:00 -3°C° 0 mm 2 mps 739 mmHg 46%
21:00 -3°C° 0 mm 2 mps 739 mmHg 47%
22:00 -1°C° 0 mm 1 mps 739 mmHg 47%
23:00 -2°C° 0 mm 0 mps 739 mmHg 47%

21 April, Wednesday

Time Temperature Precipitation Wind Pressure Humidity
00:00 -1°C° 0 mm 1 mps 739 mmHg 47%
01:00 -2°C° 0 mm 1 mps 738 mmHg 47%
02:00 -4°C° 0 mm 2 mps 738 mmHg 47%
03:00 -4°C° 0 mm 2 mps 738 mmHg 48%
04:00 -5°C° 0 mm 3 mps 738 mmHg 49%
05:00 -5°C° 0 mm 3 mps 737 mmHg 50%
06:00 -3°C° 0 mm 4 mps 737 mmHg 46%
07:00 -2°C° 0 mm 5 mps 737 mmHg 43%
08:00 -1°C° 0 mm 6 mps 737 mmHg 39%
09:00 +1°C° 0 mm 6 mps 737 mmHg 41%
10:00 +2°C° 0 mm 6 mps 737 mmHg 42%
11:00 +4°C° 0 mm 6 mps 736 mmHg 43%
12:00 +4°C° 0 mm 7 mps 737 mmHg 47%
13:00 +4°C° 0 mm 7 mps 737 mmHg 52%
14:00 +4°C° 0 mm 7 mps 737 mmHg 56%
15:00 +4°C° 0 mm 7 mps 737 mmHg 51%
16:00 +4°C° 0 mm 6 mps 737 mmHg 46%
17:00 +5°C° 0 mm 6 mps 737 mmHg 40%
18:00 +3°C° 0 mm 5 mps 738 mmHg 45%
19:00 +2°C° 0 mm 5 mps 738 mmHg 50%
20:00 +1°C° 0 mm 4 mps 739 mmHg 55%
21:00 0°C° 0 mm 4 mps 739 mmHg 59%
22:00 0°C° 0 mm 3 mps 740 mmHg 63%
23:00 -1°C° 0 mm 3 mps 740 mmHg 67%

22 April, Thursday

Time Temperature Precipitation Wind Pressure Humidity
00:00 -1°C° 0 mm 3 mps 741 mmHg 70%
01:00 -2°C° 0 mm 3 mps 741 mmHg 72%
02:00 -3°C° 0 mm 4 mps 742 mmHg 75%
03:00 -3°C° 0 mm 4 mps 742 mmHg 76%
04:00 -4°C° 0 mm 4 mps 743 mmHg 77%
05:00 -4°C° 0 mm 4 mps 743 mmHg 77%
06:00 -4°C° 0 mm 5 mps 744 mmHg 71%
07:00 -4°C° 0 mm 5 mps 744 mmHg 65%
08:00 -2°C° 0 mm 5 mps 745 mmHg 60%
09:00 -1°C° 0 mm 5 mps 745 mmHg 54%
10:00 0°C° 0 mm 5 mps 745 mmHg 48%
11:00 +1°C° 0 mm 5 mps 746 mmHg 42%
12:00 +2°C° 0 mm 5 mps 746 mmHg 40%
13:00 +2°C° 0 mm 5 mps 746 mmHg 38%
14:00 +3°C° 0 mm 5 mps 746 mmHg 36%
15:00 +3°C° 0 mm 5 mps 746 mmHg 37%
16:00 +3°C° 0 mm 5 mps 747 mmHg 37%
17:00 +3°C° 0 mm 5 mps 747 mmHg 37%
18:00 +3°C° 0 mm 4 mps 747 mmHg 42%
19:00 +1°C° 0 mm 4 mps 748 mmHg 47%
20:00 +1°C° 0 mm 3 mps 748 mmHg 52%
21:00 +1°C° 0 mm 3 mps 748 mmHg 55%
22:00 0°C° 0 mm 3 mps 748 mmHg 58%
23:00 0°C° 0 mm 3 mps 748 mmHg 61%
Show more